Flag for Germany

Past Weather in Altenburg, Thuringia, Germany — Yesterday and Last 2 Weeks

Now
55 °F

Passing clouds.


Feels Like: 55 °F
Forecast: 65 / 56 °F
Wind: 5 mph from South

Location: Leipzig-Schkeuditz

Current Time: Jul 8, 2020 at 3:07:40 am

Latest Report: Jul 8, 2020 at 2:20 am


Visibility: N/A

Pressure: 30.04 "Hg

Humidity: 88%

Dew Point: 52 °F

Location of AltenburgLocation

Past Weather in Altenburg — Graph

°F

Altenburg Temperature Yesterday

Maximum temperature yesterday: 72 °F (at 4:20 pm)
Minimum temperature yesterday: 50 °F (at 3:20 am)
Average temperature yesterday: 61 °F

High & Low Weather Summary for the Past Weeks

 TemperatureHumidityPressure
High88 °F (Jun 27, 3:50 pm)100% (Jul 2, 10:50 pm)30.27 "Hg (Jul 2, 10:50 pm)
Low50 °F (Jul 7, 3:20 am)28% (Jun 23, 3:50 pm)29.68 "Hg (Jul 1, 6:50 pm)
Average69 °F59%29.97 "Hg
* Reported Jun 23 1:20 am — Jul 8 1:50 am, Altenburg. Weather by CustomWeather, © 2020

Note: Actual official high and low records may vary slightly from our data, if they occured in-between our weather recording intervals... More about our weather records

Altenburg Weather History for the Previous 24 Hours

Scroll right to see more
 ConditionsComfort  
Time TempWeatherWind HumidityBarometerVisibility
1:50 am
Wed, Jul 8
55 °FLight rain. Clear.1 mph88%30.04 "HgN/A
1:20 am55 °FLight rain. Clear.3 mph88%30.04 "HgN/A
12:50 am55 °FLight rain. Clear.6 mph88%30.04 "HgN/A
12:20 am55 °FLight rain. Clear.6 mph88%30.04 "HgN/A
11:50 pm
Tue, Jul 7
57 °FLight rain. Clear.7 mph82%30.04 "HgN/A
11:20 pm59 °FLight rain. Clear.9 mph72%30.04 "HgN/A
10:50 pm61 °FLight rain. Clear.10 mph63%30.04 "HgN/A
10:20 pm61 °FSprinkles. Passing clouds.12 mph59%30.04 "HgN/A
9:50 pm63 °FPassing clouds.9 mph56%30.04 "HgN/A
9:20 pm64 °FPassing clouds.7 mph46%30.01 "HgN/A
8:50 pm66 °FPassing clouds.8 mph43%30.01 "HgN/A
8:20 pm66 °FSunny.10 mph40%30.01 "Hg10 mi
7:50 pm68 °FSunny.12 mph38%30.01 "Hg10 mi
7:20 pm68 °FSunny.14 mph38%30.01 "Hg10 mi
6:50 pm68 °FSunny.15 mph35%30.04 "Hg10 mi
6:20 pm68 °FSunny.15 mph38%30.04 "Hg10 mi
5:50 pm70 °FPassing clouds.13 mph35%30.04 "HgN/A
5:20 pm68 °FSunny.15 mph38%30.04 "Hg10 mi
4:50 pm72 °FPassing clouds.16 mph36%30.04 "HgN/A
4:20 pm72 °FPassing clouds.14 mph36%30.07 "HgN/A
3:50 pm70 °FPassing clouds.14 mph35%30.07 "HgN/A
3:20 pm68 °FPassing clouds.14 mph35%30.07 "HgN/A
2:50 pm68 °FSunny.13 mph38%30.07 "Hg10 mi
2:20 pm70 °FPassing clouds.13 mph33%30.09 "HgN/A
1:50 pm66 °FPassing clouds.16 mph37%30.09 "HgN/A
1:20 pm66 °FSunny.14 mph40%30.09 "Hg10 mi
12:50 pm68 °FSunny.15 mph38%30.09 "Hg10 mi
12:20 pm64 °FScattered clouds.13 mph43%30.09 "HgN/A
11:50 am63 °FScattered clouds.14 mph45%30.09 "HgN/A
11:20 am64 °FPartly sunny.10 mph46%30.09 "HgN/A
10:50 am63 °FPartly sunny.10 mph49%30.12 "HgN/A
10:20 am61 °FScattered clouds.10 mph52%30.12 "HgN/A
9:50 am59 °FScattered clouds.12 mph59%30.12 "HgN/A
9:20 am59 °FPartly sunny.10 mph63%30.12 "HgN/A
8:50 am59 °FPartly sunny.14 mph63%30.12 "HgN/A
8:20 am57 °FPartly sunny.12 mph72%30.12 "HgN/A
7:50 am57 °FScattered clouds.12 mph72%30.12 "HgN/A
7:20 am57 °FCool.10 mph72%30.12 "HgN/A
6:50 am55 °FScattered clouds.10 mph77%30.12 "HgN/A
6:20 am54 °FPassing clouds.9 mph82%30.12 "HgN/A
5:50 am54 °FScattered clouds.10 mph82%30.12 "HgN/A
5:20 am54 °FScattered clouds.8 mph82%30.12 "HgN/A
4:50 am52 °FPassing clouds.7 mph88%30.12 "HgN/A
4:20 am52 °FClear.8 mph82%30.09 "Hg10 mi
3:50 am52 °FClear.7 mph88%30.09 "Hg10 mi
3:20 am50 °FClear.9 mph88%30.09 "Hg10 mi
Weather by CustomWeather, © 2020

See weather overview